Time,TemperatureF,DewpointF,PressureIn,WindDirection,WindDirectionDegrees,WindSpeedMPH,WindSpeedGustMPH,Humidity,HourlyPrecipIn,Conditions,Clouds,dailyrainin,SoftwareType,DateUTC
2014-01-24 00:01:00,38.0,26.1,30.24,WSW,249,13.0,19.0,62,0.00,,---,0.00,VWS V13.00,2014-01-24 07:01:00,
2014-01-24 00:06:00,38.2,26.3,30.23,WSW,248,16.0,16.0,62,0.00,,---,0.00,VWS V13.00,2014-01-24 07:06:00,
2014-01-24 00:11:00,38.2,26.3,30.23,WSW,245,14.0,18.0,62,0.00,,---,0.00,VWS V13.00,2014-01-24 07:11:00,
2014-01-24 00:16:00,38.2,26.3,30.23,WSW,249,15.0,18.0,62,0.00,,---,0.00,VWS V13.00,2014-01-24 07:16:00,
2014-01-24 00:21:00,38.2,26.3,30.23,WSW,248,15.0,18.0,62,0.00,,---,0.00,VWS V13.00,2014-01-24 07:21:00,
2014-01-24 00:26:00,38.1,26.6,30.23,WSW,254,6.0,18.0,63,0.00,,---,0.00,VWS V13.00,2014-01-24 07:26:00,
2014-01-24 00:31:00,37.9,26.8,30.23,West,259,12.0,18.0,64,0.00,,---,0.00,VWS V13.00,2014-01-24 07:31:00,
2014-01-24 00:36:00,37.6,26.5,30.23,West,260,13.0,13.0,64,0.00,,---,0.00,VWS V13.00,2014-01-24 07:36:00,
2014-01-24 00:41:00,37.6,26.2,30.23,West,261,12.0,18.0,63,0.00,,---,0.00,VWS V13.00,2014-01-24 07:41:00,
2014-01-24 00:46:00,37.8,26.4,30.23,West,259,9.0,18.0,63,0.00,,---,0.00,VWS V13.00,2014-01-24 07:46:00,
2014-01-24 00:51:00,37.8,26.4,30.21,West,263,13.0,18.0,63,0.00,,---,0.00,VWS V13.00,2014-01-24 07:51:00,
2014-01-24 00:56:00,37.8,26.0,30.21,WSW,258,16.0,18.0,62,0.00,,---,0.00,VWS V13.00,2014-01-24 07:56:00,
2014-01-24 01:01:00,38.0,25.8,30.21,West,273,13.0,19.0,61,0.00,,---,0.00,VWS V13.00,2014-01-24 08:01:00,
2014-01-24 01:06:00,38.2,26.0,30.21,West,267,16.0,19.0,61,0.00,,---,0.00,VWS V13.00,2014-01-24 08:06:00,
2014-01-24 01:11:00,38.3,26.0,30.21,West,263,16.0,20.0,61,0.00,,---,0.00,VWS V13.00,2014-01-24 08:11:00,
2014-01-24 01:16:00,38.4,26.1,30.21,West,259,11.0,20.0,61,0.00,,---,0.00,VWS V13.00,2014-01-24 08:16:00,
2014-01-24 01:21:00,38.4,25.7,30.20,West,267,13.0,21.0,60,0.00,,---,0.00,VWS V13.00,2014-01-24 08:21:00,
2014-01-24 01:26:00,38.5,25.4,30.20,West,260,12.0,21.0,59,0.00,,---,0.00,VWS V13.00,2014-01-24 08:26:00,
2014-01-24 01:31:00,38.5,25.4,30.20,West,259,9.0,21.0,59,0.00,,---,0.00,VWS V13.00,2014-01-24 08:31:00,
2014-01-24 01:36:00,38.5,25.8,30.19,WSW,257,11.0,21.0,60,0.00,,---,0.00,VWS V13.00,2014-01-24 08:36:00,
2014-01-24 01:41:00,38.3,25.6,30.19,West,274,7.0,13.0,60,0.00,,---,0.00,VWS V13.00,2014-01-24 08:41:00,
2014-01-24 01:46:00,38.3,25.6,30.19,WNW,283,6.0,13.0,60,0.00,,---,0.00,VWS V13.00,2014-01-24 08:46:00,
2014-01-24 01:51:00,38.3,25.6,30.20,WNW,286,11.0,13.0,60,0.00,,---,0.00,VWS V13.00,2014-01-24 08:51:00,
2014-01-24 01:56:00,38.3,25.6,30.20,WNW,302,11.0,15.0,60,0.00,,---,0.00,VWS V13.00,2014-01-24 08:56:00,
2014-01-24 02:01:00,38.3,25.6,30.20,WNW,293,13.0,16.0,60,0.00,,---,0.00,VWS V13.00,2014-01-24 09:01:00,
2014-01-24 02:06:00,38.3,25.6,30.20,West,280,10.0,16.0,60,0.00,,---,0.00,VWS V13.00,2014-01-24 09:06:00,
2014-01-24 02:11:00,38.1,25.1,30.20,West,276,14.0,17.0,59,0.00,,---,0.00,VWS V13.00,2014-01-24 09:11:00,
2014-01-24 02:16:00,38.2,25.1,30.20,West,277,10.0,17.0,59,0.00,,---,0.00,VWS V13.00,2014-01-24 09:16:00,
2014-01-24 02:21:00,38.4,25.3,30.20,West,267,15.0,17.0,59,0.00,,---,0.00,VWS V13.00,2014-01-24 09:21:00,
2014-01-24 02:26:00,38.6,25.5,30.20,West,268,12.0,18.0,59,0.00,,---,0.00,VWS V13.00,2014-01-24 09:26:00,
2014-01-24 02:31:00,38.5,25.4,30.20,West,266,16.0,18.0,59,0.00,,---,0.00,VWS V13.00,2014-01-24 09:31:00,
2014-01-24 02:35:00,38.5,25.0,30.20,West,263,15.0,20.0,58,0.00,,---,0.00,VWS V13.00,2014-01-24 09:35:00,
2014-01-24 02:41:00,38.6,25.1,30.20,WSW,258,11.0,17.0,58,0.00,,---,0.00,VWS V13.00,2014-01-24 09:41:00,
2014-01-24 02:45:00,38.5,25.4,30.20,West,259,13.0,17.0,59,0.00,,---,0.00,VWS V13.00,2014-01-24 09:45:00,
2014-01-24 02:50:00,38.6,24.7,30.21,WSW,253,11.0,18.0,57,0.00,,---,0.00,VWS V13.00,2014-01-24 09:50:00,
2014-01-24 02:55:00,38.7,25.6,30.21,West,260,10.0,18.0,59,0.00,,---,0.00,VWS V13.00,2014-01-24 09:55:00,
2014-01-24 03:00:00,38.8,24.9,30.21,West,270,11.0,19.0,57,0.00,,---,0.00,VWS V13.00,2014-01-24 10:00:00,
2014-01-24 03:05:00,38.8,24.9,30.21,West,269,11.0,19.0,57,0.00,,---,0.00,VWS V13.00,2014-01-24 10:05:00,
2014-01-24 03:10:00,38.7,24.8,30.21,West,281,11.0,13.0,57,0.00,,---,0.00,VWS V13.00,2014-01-24 10:10:00,
2014-01-24 03:15:00,38.7,24.8,30.21,WNW,288,13.0,15.0,57,0.00,,---,0.00,VWS V13.00,2014-01-24 10:15:00,
2014-01-24 03:20:00,39.0,24.6,30.21,WNW,287,10.0,15.0,56,0.00,,---,0.00,VWS V13.00,2014-01-24 10:20:00,
2014-01-24 03:25:00,39.1,25.2,30.21,West,277,9.0,15.0,57,0.00,,---,0.00,VWS V13.00,2014-01-24 10:25:00,
2014-01-24 03:30:00,38.9,25.0,30.21,West,276,8.0,15.0,57,0.00,,---,0.00,VWS V13.00,2014-01-24 10:30:00,
2014-01-24 03:35:00,38.7,25.2,30.21,West,271,8.0,15.0,58,0.00,,---,0.00,VWS V13.00,2014-01-24 10:35:00,
2014-01-24 03:40:00,38.6,25.1,30.21,West,277,6.0,10.0,58,0.00,,---,0.00,VWS V13.00,2014-01-24 10:40:00,
2014-01-24 03:45:00,38.5,25.4,30.21,West,277,6.0,10.0,59,0.00,,---,0.00,VWS V13.00,2014-01-24 10:45:00,
2014-01-24 03:50:00,38.4,25.3,30.22,West,277,5.0,10.0,59,0.00,,---,0.00,VWS V13.00,2014-01-24 10:50:00,
2014-01-24 03:55:00,38.3,25.2,30.22,West,276,7.0,10.0,59,0.00,,---,0.00,VWS V13.00,2014-01-24 10:55:00,
2014-01-24 04:00:00,38.3,25.2,30.22,West,263,9.0,14.0,59,0.00,,---,0.00,VWS V13.00,2014-01-24 11:00:00,
2014-01-24 04:05:00,38.5,25.4,30.22,WSW,250,9.0,17.0,59,0.00,,---,0.00,VWS V13.00,2014-01-24 11:05:00,
2014-01-24 04:10:00,38.7,25.2,30.22,WSW,252,5.0,15.0,58,0.00,,---,0.00,VWS V13.00,2014-01-24 11:10:00,
2014-01-24 04:15:00,38.8,25.3,30.22,WSW,254,5.0,15.0,58,0.00,,---,0.00,VWS V13.00,2014-01-24 11:15:00,
2014-01-24 04:20:00,38.9,25.4,30.21,West,260,11.0,15.0,58,0.00,,---,0.00,VWS V13.00,2014-01-24 11:20:00,
2014-01-24 04:25:00,38.8,24.9,30.21,WSW,253,5.0,15.0,57,0.00,,---,0.00,VWS V13.00,2014-01-24 11:25:00,
2014-01-24 04:30:00,38.8,25.3,30.21,WSW,253,5.0,15.0,58,0.00,,---,0.00,VWS V13.00,2014-01-24 11:30:00,
2014-01-24 04:35:00,38.7,25.2,30.20,WSW,250,4.0,15.0,58,0.00,,---,0.00,VWS V13.00,2014-01-24 11:35:00,
2014-01-24 04:40:00,38.6,25.1,30.20,WSW,250,9.0,10.0,58,0.00,,---,0.00,VWS V13.00,2014-01-24 11:40:00,
2014-01-24 04:45:00,38.6,25.1,30.20,WSW,249,5.0,10.0,58,0.00,,---,0.00,VWS V13.00,2014-01-24 11:45:00,
2014-01-24 04:50:00,38.5,25.0,30.21,WSW,246,8.0,13.0,58,0.00,,---,0.00,VWS V13.00,2014-01-24 11:50:00,
2014-01-24 04:55:00,38.6,25.1,30.21,WSW,244,15.0,15.0,58,0.00,,---,0.00,VWS V13.00,2014-01-24 11:55:00,
2014-01-24 05:00:00,38.7,25.2,30.21,WSW,244,11.0,16.0,58,0.00,,---,0.00,VWS V13.00,2014-01-24 12:00:00,
2014-01-24 05:05:00,39.1,25.6,30.20,West,274,13.0,16.0,58,0.00,,---,0.00,VWS V13.00,2014-01-24 12:05:00,
2014-01-24 05:10:00,38.9,25.4,30.20,West,273,5.0,14.0,58,0.00,,---,0.00,VWS V13.00,2014-01-24 12:10:00,
2014-01-24 05:15:00,38.9,25.8,30.20,West,261,3.0,14.0,59,0.00,,---,0.00,VWS V13.00,2014-01-24 12:15:00,
2014-01-24 05:20:00,38.8,25.7,30.20,West,261,2.0,14.0,59,0.00,,---,0.00,VWS V13.00,2014-01-24 12:20:00,
2014-01-24 05:25:00,38.8,25.7,30.20,West,261,0.0,14.0,59,0.00,,---,0.00,VWS V13.00,2014-01-24 12:25:00,
2014-01-24 05:30:00,38.7,25.6,30.20,West,261,0.0,14.0,59,0.00,,---,0.00,VWS V13.00,2014-01-24 12:30:00,
2014-01-24 05:35:00,38.6,25.9,30.18,West,261,0.0,14.0,60,0.00,,---,0.00,VWS V13.00,2014-01-24 12:35:00,
2014-01-24 05:40:00,38.4,25.7,30.18,West,261,0.0,4.0,60,0.00,,---,0.00,VWS V13.00,2014-01-24 12:40:00,
2014-01-24 05:45:00,38.2,25.5,30.18,West,267,2.0,7.0,60,0.00,,---,0.00,VWS V13.00,2014-01-24 12:45:00,
2014-01-24 05:50:00,37.9,25.3,30.18,West,267,2.0,7.0,60,0.00,,---,0.00,VWS V13.00,2014-01-24 12:50:00,
2014-01-24 05:55:00,37.6,25.4,30.18,West,268,4.0,7.0,61,0.00,,---,0.00,VWS V13.00,2014-01-24 12:55:00,
2014-01-24 06:00:00,37.4,25.2,30.18,West,268,0.0,7.0,61,0.00,,---,0.00,VWS V13.00,2014-01-24 13:00:00,
2014-01-24 06:05:00,37.2,25.4,30.18,West,269,3.0,7.0,62,0.00,,---,0.00,VWS V13.00,2014-01-24 13:05:00,
2014-01-24 06:10:00,37.1,25.7,30.18,West,268,2.0,3.0,63,0.00,,---,0.00,VWS V13.00,2014-01-24 13:10:00,
2014-01-24 06:15:00,37.0,25.6,30.18,West,268,0.0,3.0,63,0.00,,---,0.00,VWS V13.00,2014-01-24 13:15:00,
2014-01-24 06:20:00,36.9,25.9,30.18,West,269,0.0,3.0,64,0.00,,---,0.00,VWS V13.00,2014-01-24 13:20:00,
2014-01-24 06:25:00,36.9,26.6,30.18,West,271,0.0,11.0,66,0.00,,---,0.00,VWS V13.00,2014-01-24 13:25:00,
2014-01-24 06:30:00,36.8,26.1,30.18,West,271,0.0,11.0,65,0.00,,---,0.00,VWS V13.00,2014-01-24 13:30:00,
2014-01-24 06:35:00,36.6,26.3,30.18,West,271,3.0,11.0,66,0.00,,---,0.00,VWS V13.00,2014-01-24 13:35:00,
2014-01-24 06:40:00,36.6,27.0,30.18,WSW,253,4.0,12.0,68,0.00,,---,0.00,VWS V13.00,2014-01-24 13:40:00,
2014-01-24 06:45:00,37.0,27.1,30.18,WSW,257,0.0,12.0,67,0.00,,---,0.00,VWS V13.00,2014-01-24 13:45:00,
2014-01-24 06:50:00,37.1,27.2,30.17,WSW,257,2.0,12.0,67,0.00,,---,0.00,VWS V13.00,2014-01-24 13:50:00,
2014-01-24 06:55:00,37.1,27.5,30.17,WSW,257,0.0,12.0,68,0.00,,---,0.00,VWS V13.00,2014-01-24 13:55:00,
2014-01-24 07:00:00,37.1,26.8,30.17,WSW,257,0.0,12.0,66,0.00,,---,0.00,VWS V13.00,2014-01-24 14:00:00,
2014-01-24 07:05:00,36.8,26.5,30.17,WSW,256,0.0,12.0,66,0.00,,---,0.00,VWS V13.00,2014-01-24 14:05:00,
2014-01-24 07:10:00,36.4,26.5,30.17,WNW,294,6.0,9.0,67,0.00,,---,0.00,VWS V13.00,2014-01-24 14:10:00,
2014-01-24 07:15:00,36.2,26.7,30.17,WNW,296,3.0,9.0,68,0.00,,---,0.00,VWS V13.00,2014-01-24 14:15:00,
2014-01-24 07:20:00,36.1,26.6,30.17,WNW,296,0.0,9.0,68,0.00,,---,0.00,VWS V13.00,2014-01-24 14:20:00,
2014-01-24 07:25:00,36.1,26.9,30.17,WNW,296,3.0,9.0,69,0.00,,---,0.00,VWS V13.00,2014-01-24 14:25:00,
2014-01-24 07:30:00,36.1,26.9,30.17,WNW,296,0.0,9.0,69,0.00,,---,0.00,VWS V13.00,2014-01-24 14:30:00,
2014-01-24 07:35:00,36.1,26.9,30.17,WNW,296,0.0,9.0,69,0.00,,---,0.00,VWS V13.00,2014-01-24 14:35:00,
2014-01-24 07:40:00,36.2,27.0,30.17,WNW,296,0.0,0.0,69,0.00,,---,0.00,VWS V13.00,2014-01-24 14:40:00,
2014-01-24 07:45:00,36.2,27.0,30.17,WNW,296,0.0,0.0,69,0.00,,---,0.00,VWS V13.00,2014-01-24 14:45:00,
2014-01-24 07:50:00,36.2,27.0,30.16,WNW,296,0.0,0.0,69,0.00,,---,0.00,VWS V13.00,2014-01-24 14:50:00,
2014-01-24 07:55:00,36.2,27.0,30.16,WNW,296,0.0,0.0,69,0.00,,---,0.00,VWS V13.00,2014-01-24 14:55:00,
2014-01-24 08:00:00,36.2,27.0,30.16,WNW,296,0.0,3.0,69,0.00,,---,0.00,VWS V13.00,2014-01-24 15:00:00,
2014-01-24 08:05:00,36.1,26.9,30.16,WNW,296,0.0,3.0,69,0.00,,---,0.00,VWS V13.00,2014-01-24 15:05:00,
2014-01-24 08:10:00,36.1,26.9,30.16,WNW,296,0.0,0.0,69,0.00,,---,0.00,VWS V13.00,2014-01-24 15:10:00,
2014-01-24 08:15:00,36.0,27.5,30.16,WNW,296,1.0,4.0,71,0.00,,---,0.00,VWS V13.00,2014-01-24 15:15:00,
2014-01-24 08:20:00,36.3,28.1,30.16,WNW,296,1.0,5.0,72,0.00,,---,0.00,VWS V13.00,2014-01-24 15:20:00,
2014-01-24 08:25:00,36.7,28.5,30.16,WNW,296,0.0,6.0,72,0.00,,---,0.00,VWS V13.00,2014-01-24 15:25:00,
2014-01-24 08:30:00,37.1,28.6,30.16,WNW,285,6.0,9.0,71,0.00,,---,0.00,VWS V13.00,2014-01-24 15:30:00,
2014-01-24 08:35:00,37.6,29.4,30.15,West,271,7.0,10.0,72,0.00,,---,0.00,VWS V13.00,2014-01-24 15:35:00,
2014-01-24 08:40:00,37.9,29.7,30.15,West,271,5.0,9.0,72,0.00,,---,0.00,VWS V13.00,2014-01-24 15:40:00,
2014-01-24 08:45:00,38.1,29.9,30.15,West,271,4.0,9.0,72,0.00,,---,0.00,VWS V13.00,2014-01-24 15:45:00,
2014-01-24 08:50:00,38.4,30.2,30.15,WSW,248,12.0,14.0,72,0.00,,---,0.00,VWS V13.00,2014-01-24 15:50:00,
2014-01-24 08:55:00,39.1,30.5,30.15,WSW,253,12.0,14.0,71,0.00,,---,0.00,VWS V13.00,2014-01-24 15:55:00,
2014-01-24 09:00:00,39.7,30.4,30.15,West,263,13.0,14.0,69,0.00,,---,0.00,VWS V13.00,2014-01-24 16:00:00,
2014-01-24 09:05:00,40.1,30.4,30.14,West,263,13.0,15.0,68,0.00,,---,0.00,VWS V13.00,2014-01-24 16:05:00,
2014-01-24 09:10:00,40.4,30.7,30.14,West,265,15.0,16.0,68,0.00,,---,0.00,VWS V13.00,2014-01-24 16:10:00,
2014-01-24 09:15:00,40.5,30.8,30.14,West,268,13.0,16.0,68,0.00,,---,0.00,VWS V13.00,2014-01-24 16:15:00,
2014-01-24 09:20:00,40.8,30.7,30.14,West,263,17.0,18.0,67,0.00,,---,0.00,VWS V13.00,2014-01-24 16:20:00,
2014-01-24 09:25:00,41.2,30.7,30.14,West,264,16.0,19.0,66,0.00,,---,0.00,VWS V13.00,2014-01-24 16:25:00,
2014-01-24 09:30:00,41.4,30.9,30.14,WSW,252,13.0,19.0,66,0.00,,---,0.00,VWS V13.00,2014-01-24 16:30:00,
2014-01-24 09:35:00,41.7,30.8,30.15,West,263,14.0,19.0,65,0.00,,---,0.00,VWS V13.00,2014-01-24 16:35:00,
2014-01-24 09:40:00,42.1,30.4,30.15,West,261,18.0,20.0,63,0.00,,---,0.00,VWS V13.00,2014-01-24 16:40:00,
2014-01-24 09:45:00,42.6,30.9,30.15,West,259,16.0,20.0,63,0.00,,---,0.00,VWS V13.00,2014-01-24 16:45:00,
2014-01-24 09:50:00,42.9,30.8,30.14,West,261,15.0,21.0,62,0.00,,---,0.00,VWS V13.00,2014-01-24 16:50:00,
2014-01-24 09:55:00,43.0,30.5,30.14,West,261,13.0,22.0,61,0.00,,---,0.00,VWS V13.00,2014-01-24 16:55:00,
2014-01-24 10:00:00,42.9,30.4,30.14,WSW,257,15.0,22.0,61,0.00,,---,0.00,VWS V13.00,2014-01-24 17:00:00,
2014-01-24 10:05:00,42.7,30.2,30.14,WSW,256,9.0,22.0,61,0.00,,---,0.00,VWS V13.00,2014-01-24 17:05:00,
2014-01-24 10:10:00,42.6,30.5,30.14,WSW,253,17.0,19.0,62,0.00,,---,0.00,VWS V13.00,2014-01-24 17:10:00,
2014-01-24 10:15:00,42.8,30.3,30.14,WSW,251,19.0,22.0,61,0.00,,---,0.00,VWS V13.00,2014-01-24 17:15:00,
2014-01-24 10:20:00,43.0,30.5,30.16,WSW,256,15.0,22.0,61,0.00,,---,0.00,VWS V13.00,2014-01-24 17:20:00,
2014-01-24 10:25:00,43.2,30.7,30.16,WSW,252,15.0,22.0,61,0.00,,---,0.00,VWS V13.00,2014-01-24 17:25:00,
2014-01-24 10:30:00,43.5,30.5,30.16,WSW,241,17.0,22.0,60,0.00,,---,0.00,VWS V13.00,2014-01-24 17:30:00,
2014-01-24 10:35:00,43.8,30.8,30.15,West,259,13.0,22.0,60,0.00,,---,0.00,VWS V13.00,2014-01-24 17:35:00,
2014-01-24 10:40:00,44.1,30.7,30.15,WSW,254,13.0,20.0,59,0.00,,---,0.00,VWS V13.00,2014-01-24 17:40:00,
2014-01-24 10:45:00,44.4,31.0,30.15,West,263,14.0,23.0,59,0.00,,---,0.00,VWS V13.00,2014-01-24 17:45:00,
2014-01-24 10:50:00,44.8,30.9,30.15,West,267,20.0,23.0,58,0.00,,---,0.00,VWS V13.00,2014-01-24 17:50:00,
2014-01-24 10:55:00,45.0,31.1,30.15,West,267,20.0,26.0,58,0.00,,---,0.00,VWS V13.00,2014-01-24 17:55:00,
2014-01-24 11:00:00,45.3,31.0,30.15,West,263,19.0,26.0,57,0.00,,---,0.00,VWS V13.00,2014-01-24 18:00:00,
2014-01-24 11:05:00,45.6,31.3,30.12,WSW,250,26.0,27.0,57,0.00,,---,0.00,VWS V13.00,2014-01-24 18:05:00,
2014-01-24 11:10:00,45.9,31.1,30.12,West,259,28.0,28.0,56,0.00,,---,0.00,VWS V13.00,2014-01-24 18:10:00,
2014-01-24 11:15:00,46.1,31.3,30.12,WSW,258,21.0,29.0,56,0.00,,---,0.00,VWS V13.00,2014-01-24 18:15:00,
2014-01-24 11:20:00,46.5,31.2,30.12,WSW,257,21.0,32.0,55,0.00,,---,0.00,VWS V13.00,2014-01-24 18:20:00,
2014-01-24 11:25:00,47.0,31.7,30.12,WSW,240,21.0,32.0,55,0.00,,---,0.00,VWS V13.00,2014-01-24 18:25:00,
2014-01-24 11:30:00,47.5,32.2,30.12,West,277,21.0,32.0,55,0.00,,---,0.00,VWS V13.00,2014-01-24 18:30:00,
2014-01-24 11:35:00,48.0,32.2,30.11,WNW,291,21.0,32.0,54,0.00,,---,0.00,VWS V13.00,2014-01-24 18:35:00,
2014-01-24 11:40:00,48.6,31.8,30.11,WNW,293,19.0,32.0,52,0.00,,---,0.00,VWS V13.00,2014-01-24 18:40:00,
2014-01-24 11:45:00,48.9,31.6,30.11,West,275,28.0,32.0,51,0.00,,---,0.00,VWS V13.00,2014-01-24 18:45:00,
2014-01-24 11:50:00,48.8,31.5,30.10,WNW,283,26.0,35.0,51,0.00,,---,0.00,VWS V13.00,2014-01-24 18:50:00,
2014-01-24 11:55:00,48.6,31.3,30.10,West,276,27.0,35.0,51,0.00,,---,0.00,VWS V13.00,2014-01-24 18:55:00,
2014-01-24 12:00:00,48.3,31.5,30.10,West,277,34.0,38.0,52,0.00,,---,0.00,VWS V13.00,2014-01-24 19:00:00,
2014-01-24 12:05:00,48.4,31.6,30.09,WNW,294,36.0,38.0,52,0.00,,---,0.00,VWS V13.00,2014-01-24 19:05:00,
2014-01-24 12:10:00,48.5,31.7,30.09,WNW,290,33.0,38.0,52,0.00,,---,0.00,VWS V13.00,2014-01-24 19:10:00,
2014-01-24 12:15:00,48.6,31.8,30.09,West,277,33.0,40.0,52,0.00,,---,0.00,VWS V13.00,2014-01-24 19:15:00,
2014-01-24 12:20:00,48.7,31.4,30.09,WNW,285,37.0,40.0,51,0.00,,---,0.00,VWS V13.00,2014-01-24 19:20:00,
2014-01-24 12:25:00,48.7,31.9,30.09,WNW,294,29.0,40.0,52,0.00,,---,0.00,VWS V13.00,2014-01-24 19:25:00,
2014-01-24 12:30:00,48.7,31.9,30.09,WNW,286,30.0,40.0,52,0.00,,---,0.00,VWS V13.00,2014-01-24 19:30:00,
2014-01-24 12:35:00,48.7,31.9,30.09,NW,306,28.0,40.0,52,0.00,,---,0.00,VWS V13.00,2014-01-24 19:35:00,
2014-01-24 12:40:00,48.8,32.0,30.09,WNW,299,31.0,39.0,52,0.00,,---,0.00,VWS V13.00,2014-01-24 19:40:00,
2014-01-24 12:45:00,48.9,32.1,30.09,West,279,33.0,39.0,52,0.00,,---,0.00,VWS V13.00,2014-01-24 19:45:00,
2014-01-24 12:50:00,49.0,32.2,30.09,WNW,292,28.0,39.0,52,0.00,,---,0.00,VWS V13.00,2014-01-24 19:50:00,
2014-01-24 12:55:00,49.0,32.2,30.09,WNW,292,30.0,39.0,52,0.00,,---,0.00,VWS V13.00,2014-01-24 19:55:00,
2014-01-24 13:00:00,49.0,32.6,30.09,WNW,287,29.0,39.0,53,0.00,,---,0.00,VWS V13.00,2014-01-24 20:00:00,
2014-01-24 13:05:00,49.1,32.7,30.09,WNW,288,28.0,39.0,53,0.00,,---,0.00,VWS V13.00,2014-01-24 20:05:00,
2014-01-24 13:10:00,49.2,32.8,30.09,WNW,291,26.0,33.0,53,0.00,,---,0.00,VWS V13.00,2014-01-24 20:10:00,
2014-01-24 13:15:00,49.2,32.8,30.09,WNW,295,30.0,33.0,53,0.00,,---,0.00,VWS V13.00,2014-01-24 20:15:00,
2014-01-24 13:20:00,49.1,32.7,30.09,WNW,286,25.0,33.0,53,0.00,,---,0.00,VWS V13.00,2014-01-24 20:20:00,
2014-01-24 13:25:00,49.2,33.3,30.09,WNW,292,26.0,34.0,54,0.00,,---,0.00,VWS V13.00,2014-01-24 20:25:00,
2014-01-24 13:30:00,49.0,33.5,30.09,WNW,285,25.0,34.0,55,0.00,,---,0.00,VWS V13.00,2014-01-24 20:30:00,
2014-01-24 13:35:00,48.8,33.4,30.10,WNW,295,27.0,34.0,55,0.00,,---,0.00,VWS V13.00,2014-01-24 20:35:00,
2014-01-24 13:40:00,48.6,33.6,30.10,WNW,294,25.0,27.0,56,0.00,,---,0.00,VWS V13.00,2014-01-24 20:40:00,
2014-01-24 13:45:00,48.5,33.5,30.10,WNW,297,21.0,31.0,56,0.00,,---,0.00,VWS V13.00,2014-01-24 20:45:00,
2014-01-24 13:50:00,48.7,32.8,30.09,WNW,303,23.0,32.0,54,0.00,,---,0.00,VWS V13.00,2014-01-24 20:50:00,
2014-01-24 13:55:00,49.0,32.6,30.09,NW,307,21.0,32.0,53,0.00,,---,0.00,VWS V13.00,2014-01-24 20:55:00,
2014-01-24 14:00:00,49.2,32.3,30.09,NW,309,23.0,34.0,52,0.00,,---,0.00,VWS V13.00,2014-01-24 21:00:00,
2014-01-24 14:05:00,49.0,32.6,30.09,NW,306,22.0,34.0,53,0.00,,---,0.00,VWS V13.00,2014-01-24 21:05:00,
2014-01-24 14:10:00,49.0,32.2,30.09,NW,311,21.0,33.0,52,0.00,,---,0.00,VWS V13.00,2014-01-24 21:10:00,
2014-01-24 15:06:00,48.3,33.3,30.10,WNW,284,20.0,25.0,56,0.00,,---,0.00,VWS V13.00,2014-01-24 22:06:00,
2014-01-24 15:36:00,47.8,33.3,30.10,West,273,19.0,27.0,57,0.00,,---,0.00,VWS V13.00,2014-01-24 22:36:00,
2014-01-24 16:06:00,46.9,32.9,30.11,WNW,290,15.0,25.0,58,0.00,,---,0.00,VWS V13.00,2014-01-24 23:06:00,
2014-01-24 16:36:00,45.4,32.8,30.12,West,279,17.0,24.0,61,0.00,,---,0.00,VWS V13.00,2014-01-24 23:36:00,
2014-01-24 17:06:00,44.5,31.9,30.12,WNW,291,17.0,25.0,61,0.00,,---,0.00,VWS V13.00,2014-01-25 00:06:00,
2014-01-24 17:36:00,42.2,31.7,30.15,WNW,283,16.0,22.0,66,0.00,,---,0.00,VWS V13.00,2014-01-25 00:36:00,
2014-01-24 18:06:00,39.9,30.6,30.18,West,275,14.0,20.0,69,0.00,,---,0.00,VWS V13.00,2014-01-25 01:06:00,
2014-01-24 18:36:00,39.2,30.2,30.18,WNW,285,20.0,22.0,70,0.00,,---,0.00,VWS V13.00,2014-01-25 01:36:00,
2014-01-24 19:06:00,39.5,30.2,30.18,WNW,292,20.0,25.0,69,0.00,,---,0.00,VWS V13.00,2014-01-25 02:06:00,
2014-01-24 19:36:00,39.6,29.9,30.19,West,280,17.0,28.0,68,0.00,,---,0.00,VWS V13.00,2014-01-25 02:36:00,
2014-01-24 20:06:00,38.2,29.6,30.18,West,269,18.0,25.0,71,0.00,,---,0.00,VWS V13.00,2014-01-25 03:06:00,
2014-01-24 20:36:00,36.6,29.1,30.20,West,260,7.0,18.0,74,0.00,,---,0.00,VWS V13.00,2014-01-25 03:36:00,
2014-01-24 21:06:00,35.5,29.0,30.18,West,263,12.0,19.0,77,0.00,,---,0.00,VWS V13.00,2014-01-25 04:06:00,
2014-01-24 21:36:00,35.5,29.0,30.20,WNW,286,11.0,15.0,77,0.00,,---,0.00,VWS V13.00,2014-01-25 04:36:00,
2014-01-24 22:06:00,36.5,29.0,30.19,WNW,286,3.0,14.0,74,0.00,,---,0.00,VWS V13.00,2014-01-25 05:06:00,
2014-01-24 22:36:00,36.4,28.9,30.19,WNW,285,0.0,5.0,74,0.00,,---,0.00,VWS V13.00,2014-01-25 05:36:00,
2014-01-24 23:06:00,35.8,28.7,30.18,WSW,237,8.0,9.0,75,0.00,,---,0.00,VWS V13.00,2014-01-25 06:06:00,
2014-01-24 23:36:00,36.2,29.0,30.17,SW,223,2.0,10.0,75,0.00,,---,0.00,VWS V13.00,2014-01-25 06:36:00,